Theta_e
333 327 338 335 338 340 339 336 324 318 319 325 327 330 330 328 328 328 327 324 325 321 321 321 323 324 325 326 327 326 326 324 323 323 323 324 324 324
334 333 335 338 335 337 332 330 334 324 320 326 326 328 327 327 329 327 326 324 322 320 321 320 320 321 322 323 324 325 324 322 320 321 320 320 320 320
335 334 332 336 333 330 332 334 331 333 322 324 325 326 326 325 327 327 329 328 324 320 321 320 319 319 320 321 322 323 322 319 317 316 315 315 315 315
329 329 330 332 332 334 338 332 330 326 323 318 323 323 324 326 326 326 325 326 325 321 319 318 316 317 318 320 319 315 313 312 312 312 312 312 312 312
330 331 330 330 331 332 333 330 331 326 325 321 320 323 323 324 323 324 323 325 326 321 317 316 317 316 314 313 311 308 305 305 305 306 307 307 307 306
332 333 333 332 332 327 332 329 330 324 323 321 320 320 321 323 323 319 318 322 323 324 317 317 315 312 309 308 307 305 303 302 301 301 301 301 301 302
333 332 334 329 323 325 333 331 327 324 321 320 319 319 319 319 319 320 320 321 324 324 322 321 320 317 313 309 306 304 302 301 300 300 300 299 298 299
330 330 332 325 319 311 313 316 324 324 321 320 319 318 319 321 321 321 319 319 317 328 324 320 322 317 316 310 302 301 300 300 299 299 299 298 298 297
330 329 328 327 326 325 311 311 311 310 317 323 321 322 321 323 323 322 322 322 320 321 320 315 319 312 309 303 300 299 298 298 298 298 297 297 297 296
329 328 329 325 323 323 323 325 323 322 325 325 325 325 326 331 330 324 329 330 326 322 324 314 316 311 308 304 298 298 297 296 296 296 296 296 296 296
330 327 328 324 303 308 322 322 318 316 306 306 310 310 308 310 322 328 324 322 319 321 324 318 315 311 309 306 302 297 296 295 295 295 296 295 295 295
330 325 309 315 303 308 326 324 326 327 327 324 320 314 317 314 309 332 327 322 322 321 324 316 313 313 310 313 309 304 303 296 296 296 296 295 294 303
326 327 322 299 301 306 313 328 323 327 320 328 328 328 327 326 327 332 333 329 324 321 321 322 317 317 317 312 312 308 308 304 306 302 296 296 295 294
326 329 321 298 299 301 311 300 302 314 326 324 324 322 323 325 328 330 330 329 327 327 323 325 320 319 316 312 309 306 307 306 307 306 306 299 296 295
330 311 299 296 296 301 297 300 303 326 326 325 324 324 324 323 321 319 320 318 319 319 319 322 319 319 315 306 304 303 303 305 306 305 304 304 302 302
309 320 312 308 302 309 307 311 327 326 324 322 319 318 318 318 318 319 316 316 313 310 312 313 313 311 306 306 305 302 303 303 305 304 302 303 305 304
325 326 327 326 325 324 324 325 326 326 324 325 322 319 318 318 318 319 318 316 313 308 305 307 309 309 307 306 302 303 302 304 304 302 301 299 302 303
325 327 328 326 323 324 324 325 326 320 324 323 322 320 318 318 317 317 317 316 315 310 307 305 304 302 300 299 297 303 303 302 302 302 299 295 296 299
328 329 327 324 322 322 323 323 323 324 325 323 322 321 319 318 315 316 316 316 314 311 308 305 302 301 298 296 296 290 299 300 298 297 296 295 294 296
322 322 322 322 321 320 321 321 322 323 323 323 322 322 320 318 316 316 316 315 313 308 304 304 302 300 297 297 298 296 287 295 294 293 295 295 295 291
321 320 322 322 322 323 322 322 322 322 322 322 322 322 321 319 317 316 316 301 303 306 302 298 297 290 298 298 296 293 293 288 290 292 292 290 292 293
320 319 320 321 322 321 321 322 321 320 322 322 322 322 321 320 317 316 316 311 307 303 299 295 296 296 294 293 293 293 293 296 290 288 287 285 289 290
323 322 321 320 321 321 321 320 319 320 320 321 321 321 320 318 317 317 316 310 303 297 298 296 296 296 294 293 292 293 293 293 294 293 294 288 288 287
Wind_Speed
4 3 2 0 1 2 4 6 8 8 4 5 4 6 9 13 18 13 15 16 13 11 11 12 12 11 11 8 8 8 6 5 4 2 1 2 4 6
5 4 4 4 5 4 5 2 4 6 5 3 3 9 13 12 17 14 13 14 10 10 11 11 11 10 8 8 7 6 6 4 2 1 3 6 6 6
4 4 5 4 5 5 4 4 4 5 9 6 6 15 15 17 14 13 10 9 6 10 10 9 9 8 7 7 7 5 4 4 5 7 7 6 6 6
4 4 5 4 6 4 4 7 7 7 11 14 11 13 13 15 14 13 9 6 6 7 7 9 8 7 7 6 7 7 8 9 9 9 11 11 11 11
6 6 7 6 7 3 6 7 9 7 9 11 12 11 10 11 11 9 8 7 5 9 10 10 9 9 9 10 11 12 13 12 12 12 13 12 12 11
5 7 7 7 8 6 6 7 11 10 10 10 11 11 10 9 8 8 6 3 5 9 11 14 11 16 16 15 16 16 15 13 13 12 12 11 9 8
7 6 5 8 10 5 5 9 11 9 10 11 10 10 9 9 8 5 7 6 6 8 10 9 9 10 10 15 16 16 15 14 12 13 10 8 10 11
7 6 8 9 10 10 12 11 9 12 12 10 9 11 10 9 7 8 8 8 9 5 9 8 7 7 7 8 13 12 12 12 11 11 10 9 9 7
9 8 7 7 9 10 13 15 14 13 9 13 13 10 11 9 9 8 9 9 9 9 9 8 7 8 8 9 8 10 11 11 11 11 9 6 3 2
8 9 10 10 9 10 10 11 11 9 9 6 9 9 9 11 10 8 7 8 9 10 8 8 8 8 8 8 6 9 10 11 10 8 6 4 4 6
9 9 11 9 8 12 11 12 10 8 9 12 10 9 12 8 9 10 9 10 10 8 7 7 7 7 7 7 7 9 10 9 7 4 3 6 9 14
10 9 10 9 7 6 10 10 13 12 13 11 9 9 11 7 5 7 8 8 7 5 6 5 8 8 6 7 9 7 7 10 10 8 5 5 11 5
8 9 7 8 6 6 6 7 10 14 12 12 11 10 9 9 7 5 7 4 8 3 9 8 10 9 5 7 7 6 5 7 6 9 8 7 4 5
10 9 9 9 7 5 2 10 11 11 10 10 10 9 10 9 7 5 4 5 6 4 10 6 6 7 6 5 7 6 5 4 2 1 2 5 9 6
8 11 14 8 10 10 9 11 10 8 10 10 10 8 7 8 8 8 8 9 9 7 4 3 3 4 4 5 5 5 5 6 2 1 3 3 4 4
12 9 7 6 4 11 7 6 7 8 8 7 7 8 7 8 7 8 8 7 7 7 6 5 4 5 4 4 5 5 4 3 1 3 4 3 1 2
11 9 8 8 8 9 9 8 8 7 7 8 8 8 8 8 7 7 7 7 5 7 6 6 5 4 4 3 5 4 3 2 2 3 4 5 3 0
9 8 8 9 10 9 8 8 8 8 8 7 8 8 9 9 8 8 7 8 7 8 8 9 9 8 7 6 13 2 2 0 1 1 3 5 5 3
9 9 9 9 9 9 9 10 9 8 9 8 8 9 9 9 9 9 9 8 7 7 7 7 8 7 6 5 6 12 5 3 4 4 3 4 6 5
9 9 9 9 9 10 10 10 10 9 9 9 9 9 9 9 9 9 9 9 8 6 6 5 4 2 2 3 4 7 8 3 4 4 5 5 6 4
11 10 9 10 9 10 10 9 10 10 10 10 10 9 10 10 10 10 9 8 8 8 10 8 8 3 5 3 4 3 3 4 2 4 5 6 6 6
12 12 11 10 10 10 10 10 11 10 10 10 10 11 10 10 11 12 10 10 10 9 9 7 6 6 6 5 5 3 3 2 8 7 4 3 4 5
13 13 12 12 11 11 12 12 11 11 12 13 12 12 12 12 11 11 11 10 9 9 12 11 8 5 5 6 5 3 5 5 4 5 4 16 11 11
Wind_Direction
135 215 232 283 96 145 126 154 155 155 139 167 141 143 148 134 135 136 133 136 128 134 129 137 135 132 131 140 140 132 125 110 105 156 205 272 294 311
173 150 209 140 143 112 136 170 208 181 146 154 115 131 133 129 129 124 124 124 123 130 133 126 128 118 136 131 127 127 132 155 150 17 12 19 20 8
164 160 125 147 120 124 120 106 81 119 120 111 98 123 118 122 119 122 126 122 123 121 115 114 117 126 134 135 126 147 124 78 70 61 67 64 64 58
118 151 140 137 139 167 125 100 87 97 119 117 110 105 110 114 117 112 109 102 101 87 109 106 115 127 124 123 102 97 89 87 87 90 87 83 78 69
144 146 132 150 129 141 122 126 115 98 109 111 111 115 114 118 113 107 117 106 132 123 98 96 85 92 90 92 95 95 91 91 90 84 82 77 68 63
149 149 159 138 143 159 126 115 125 123 119 118 118 119 117 118 115 121 114 118 152 122 77 81 89 86 89 94 96 99 93 88 80 79 72 68 71 65
147 156 134 81 91 86 113 130 127 126 127 126 127 125 127 132 131 113 123 126 133 147 131 135 124 114 107 85 98 95 93 90 86 76 75 72 59 52
121 113 110 109 88 78 71 88 120 136 134 134 135 136 133 123 120 138 132 147 135 138 125 120 116 107 90 82 88 94 92 89 83 75 64 58 65 66
119 118 109 104 121 106 88 89 80 82 115 141 139 139 130 139 131 149 162 164 142 141 133 123 126 111 105 106 92 95 89 84 73 63 51 52 91 138
123 126 116 108 102 105 112 110 92 85 99 110 121 126 137 155 147 152 165 114 118 158 145 140 145 128 116 111 95 96 88 81 73 62 42 5 320 277
135 120 112 108 96 101 107 112 100 88 70 88 109 134 133 138 162 150 159 156 153 163 195 144 155 138 158 153 141 127 112 107 110 118 61 8 331 297
122 108 89 107 90 93 123 132 128 131 137 128 118 115 135 129 159 178 175 175 167 144 158 150 152 169 181 168 166 164 160 181 184 166 138 61 356 355
123 129 128 105 92 122 127 130 135 142 145 140 141 141 141 151 168 193 202 243 177 211 147 202 184 190 242 141 178 181 207 152 199 175 169 145 127 7
154 144 124 112 87 51 93 116 125 140 141 139 144 154 165 169 151 154 98 61 44 41 149 249 193 198 212 166 175 161 183 169 242 236 314 139 177 169
142 91 114 123 120 95 110 137 173 157 153 158 157 156 158 133 131 122 104 101 91 91 114 191 256 180 220 209 154 165 183 175 201 7 354 1 9 344
118 127 125 111 68 109 137 199 153 158 155 151 155 148 134 156 164 156 156 157 133 112 83 93 130 187 174 156 168 160 173 177 141 52 337 292 295 335
143 153 167 169 163 168 166 181 171 166 182 166 163 162 172 170 165 170 170 167 168 157 145 143 129 129 112 144 159 165 145 126 41 23 299 306 248 322
183 181 181 182 183 182 186 187 192 187 191 180 175 182 180 183 173 182 187 196 192 178 166 159 167 154 151 106 17 122 124 37 13 302 303 309 307 338
218 196 194 193 198 196 199 199 200 195 196 193 193 193 191 196 178 190 196 199 191 183 175 172 181 205 205 202 108 28 332 14 344 300 345 313 293 322
231 209 207 202 207 206 207 208 205 191 201 202 201 198 199 199 190 204 204 203 193 171 169 178 194 165 8 43 123 98 26 343 350 301 305 312 285 248
211 227 219 211 213 215 213 216 212 210 201 204 205 205 204 206 200 213 204 196 170 187 173 154 122 125 120 124 121 146 135 123 341 313 332 302 311 299
212 217 219 220 218 214 216 215 211 207 201 211 213 210 209 210 213 209 206 179 187 167 180 141 162 150 129 137 154 202 241 174 173 184 204 245 321 307
221 217 215 215 215 219 215 214 214 208 208 211 212 212 209 211 212 211 202 172 169 157 158 154 159 180 140 125 125 199 236 265 290 288 246 189 221 243